Tracking 19817 objects as of 18-Aug-2019
HD Live streaming from Space Station
objects crossing your sky now

COSMOS 2251 DEB

Track COSMOS 2251 DEB now!
10-day predictions


NORAD ID: 37293
Int'l Code: 1993-036BJH
Perigee: 734.2 km
Apogee: 857.2 km
Inclination: 73.9 °
Period: 100.6 minutes
Semi major axis: 7166 km
RCS: 0.0083 m2 (small)
Launch date: June 16, 1993
Source: Commonwealth of Independent States (former USSR) (CIS)
Launch site: PLESETSK MISSILE AND SPACE COMPLEX (PKMTR)

Note: This is SATELLITE DEBRIS
aabbcc
Your satellite tracking list
Your tracking list is empty




NASA's NSSDC Master Catalog

Two Line Element Set (TLE):
1 37293U 93036BJH 19228.31838884 +.00000340 +00000-0 +13423-3 0  9993
2 37293 073.9220 224.8248 0085778 266.6225 092.5110 14.30946390322366
Source of the keplerian elements: AFSPC